Hourly Data Report for October 12, 2015

All times are specified in Local Standard Time (LST). Add 1 hour to adjust for Daylight Saving Time where and when it is observed.

MONCTON INTL A
NEW BRUNSWICK

46°06'44.000" N
64°40'43.000" W
70.70 m
8103201
71705
YQM

Download Data

Hourly Data (October 2015)
Hourly Data Report for October 12, 2015
Temp Definition
°C
Dew Point Temp Definition
°C
Rel Hum Definition
%
Wind Dir Definition
10's deg

Wind Spd Definition
km/h
Visibility Definition
km
Stn Press Definition
kPa
Hmdx Definition


Wind Chill Definition


Weather Definition


TIME
00:00 Legend Double Dagger 9.5 8.1 91 24 8 24.1 99.95     LegendNANA
01:00 Legend Double Dagger 9.7 8.2 90 18 4 24.1 99.97     LegendNANA
02:00 Legend Double Dagger 9.6 8.4 92 20 9 24.1 100.00     Cloudy
03:00 Legend Double Dagger 9.8 8.3 90 21 12 24.1 99.98     LegendNANA
04:00 Legend Double Dagger 9.6 8.1 90 20 9 24.1 99.96     LegendNANA
05:00 Legend Double Dagger 9.7 8.0 89 22 7 24.1 100.00     Cloudy
06:00 Legend Double Dagger 9.7 8.5 92 36 1 24.1 100.01     LegendNANA
07:00 Legend Double Dagger 9.7 8.5 92 14 4 24.1 100.06     LegendNANA
08:00 Legend Double Dagger 10.2 8.8 91 16 7 24.1 100.10     Cloudy
09:00 Legend Double Dagger 10.9 9.2 89 18 8 24.1 100.13     LegendNANA
10:00 Legend Double Dagger 11.9 9.3 84 14 4 24.1 100.15     LegendNANA
11:00 Legend Double Dagger 14.0 10.3 78 23 3 24.1 100.13     Mostly Cloudy
12:00 Legend Double Dagger 15.8 10.0 68 21 8 24.1 100.13     LegendNANA
13:00 Legend Double Dagger 18.5 10.2 58 22 16 24.1 100.07     LegendNANA
14:00 Legend Double Dagger 19.0 10.4 57 19 16 24.1 100.04     Mostly Cloudy
15:00 Legend Double Dagger 19.0 10.9 59 18 12 24.1 100.05     LegendNANA
16:00 Legend Double Dagger 18.8 9.9 56 18 17 24.1 100.05     LegendNANA
17:00 Legend Double Dagger 16.4 11.4 72 16 13 24.1 100.04     Mainly Clear
18:00 Legend Double Dagger 13.9 11.3 84 15 11 24.1 100.05     LegendNANA
19:00 Legend Double Dagger 13.1 9.9 81 17 10 24.1 100.08     LegendNANA
20:00 Legend Double Dagger 12.0 9.6 85 17 11 24.1 100.12     Mainly Clear
21:00 Legend Double Dagger 11.1 9.4 89 16 9 24.1 100.14     LegendNANA
22:00 Legend Double Dagger 10.9 9.5 91 15 9 24.1 100.15     LegendNANA
23:00 Legend Double Dagger 11.2 9.6 90 16 12 24.1 100.16     Clear

Notes on Data Quality.

Legend

  • E = Estimated
  • M = Missing
  • NA = Not Available
  • ‡ = Partner data that is not subject to review by the National Climate Archives
Date modified: